This demonstration page uses our WeatherBlox Daily Observations layout. Learn more.

Left ArrowRight Arrow

39.92423, -83.80882

Hourly Observations for January 20, 2019

Temp ( °F °C ) Dew Point ( °F °C ) Humidity (%) Winds ( mph kmh ) Pressure ( in mb ) Visibility ( mi km ) Precip ( " mm )
12:24 am 00:24 Cloudy with Snow 19 -7 18 -8 93 93 N 24 39 29.71 1006 1 1 N/A
12:49 am 00:49 Cloudy with Heavy Snow 19 -7 19 -7 100 100 N 25 41 29.71 1006 0 0 N/A
12:56 am 00:56 Cloudy with Snow 19 -7.2 18 -7.8 96 96 N 21 33 29.71 1006 1 1 N/A
1:21 am 01:21 Windy with Snow Likely 19 -7 18 -8 93 93 N 24 39 29.77 1008 1 1 N/A
1:28 am 01:28 Windy with Snow Likely 19 -7 18 -8 93 93 N 23 37 29.77 1008 1 2 N/A
1:38 am 01:38 Windy with Snow Likely 18 -8 18 -8 100 100 N 20 31 29.77 1008 1 2 N/A
1:42 am 01:42 Windy with Snow Likely 18 -8 18 -8 100 100 NNW 26 43 29.77 1008 1 1 N/A
1:56 am 01:56 Windy with Snow Likely 18 -7.8 16 -8.9 92 92 N 22 35 29.75 1007 1 1 N/A
2:11 am 02:11 Windy with Snow Likely 18 -8 16 -9 93 93 N 20 31 29.80 1009 1 2 N/A
2:23 am 02:23 Windy with Snow Likely 18 -8 16 -9 93 93 NNW 23 37 29.83 1010 2 3 N/A
2:56 am 02:56 Windy with Snow Likely 17 -8.3 15 -9.4 92 92 N 24 39 29.78 1009 3 4 N/A
3:26 am 03:26 Windy with Snow Likely 18 -8 14 -10 86 86 NNW 24 39 29.85 1011 3 5 N/A
3:56 am 03:56 Windy with Snow Likely 16 -8.9 14 -10 92 92 NNW 20 31 29.83 1010 6 10 N/A
4:25 am 04:25 Windy with Snow Likely 16 -9 12 -11 86 86 NNW 26 43 29.88 1012 2 3 N/A
4:33 am 04:33 Cloudy with Light Snow 16 -9 12 -11 86 86 NNW 18 30 29.91 1013 3 5 N/A
4:56 am 04:56 Windy with Snow Likely 14 -10 12 -11.1 92 92 NW 22 35 29.90 1013 3 5 N/A
5:01 am 05:01 Windy with Snow Likely 14 -10 12 -11 92 92 NNW 25 41 29.94 1014 2 2 N/A
5:17 am 05:17 Windy with Snow Likely 14 -10 10 -12 85 85 NW 21 33 29.97 1015 4 6 N/A
5:24 am 05:24 Windy with Snow Likely 12 -11 10 -12 92 92 NNW 22 35 29.97 1015 3 5 N/A
5:33 am 05:33 Windy with Snow Likely 12 -11 10 -12 92 92 NNW 22 35 29.97 1015 3 4 N/A
5:56 am 05:56 Windy with Snow Likely 12 -11.1 9 -12.8 87 87 NNW 23 37 29.96 1015 3 5 N/A
6:04 am 06:04 Windy with Snow Likely 10 -12 9 -13 92 92 NNW 25 41 30.03 1017 2 3 N/A
6:10 am 06:10 Windy with Snow Likely 10 -12 9 -13 92 92 NNW 22 35 30.03 1017 3 5 N/A
6:24 am 06:24 Mostly Cloudy with Light Snow 10 -12 7 -14 85 85 NNW 22 35 30.06 1018 5 8 N/A
6:43 am 06:43 Mostly Cloudy with Light Snow 9 -13 7 -14 92 92 NNW 25 41 30.09 1019 5 8 N/A
6:56 am 06:56 Mostly Cloudy with Light Snow 9 -12.8 6 -14.4 88 88 NW 14 22 30.03 1017 9 14 N/A
7:56 am 07:56 Cloudy with Light Snow 6 -14.4 3 -16.1 87 87 NNW 18 30 30.07 1018 9 14 N/A
8:56 am 08:56 Cloudy with Light Snow 5 -15 2 -16.7 87 87 NW 17 28 30.12 1020 9 14 N/A
9:29 am 09:29 Partly Cloudy 5 -15 1 -17 85 85 NNW 16 26 30.21 1023 10 16 N/A
9:56 am 09:56 Mostly Sunny 5 -15 2 -16.7 87 87 NNW 18 30 30.16 1021 10 16 N/A
11:56 am 11:56 Sunny 8 -13.3 3 -16.1 80 80 NW 17 28 30.19 1023 10 16 N/A
12:56 pm 12:56 Sunny 9 -12.8 3 -16.1 77 77 NNW 15 24 30.20 1023 10 16 N/A
1:56 pm 13:56 Sunny 10 -12.2 4 -15.6 76 76 NNW 15 24 30.19 1022 10 16 N/A
2:56 pm 14:56 Sunny 10 -12.2 3 -16.1 73 73 NNW 16 26 30.22 1023 10 16 N/A
3:56 pm 15:56 Sunny 10 -12.2 2 -16.7 69 69 NNW 14 22 30.25 1025 10 16 N/A
4:56 pm 16:56 Sunny 9 -12.8 1 -17.2 70 70 WNW 13 20 30.28 1026 10 16 N/A
5:56 pm 17:56 Clear 7 -13.9 N/A 73 73 NW 8 13 30.31 1026 10 16 N/A
6:56 pm 18:56 Clear 5 -15 N/A 79 79 W 5 7 30.35 1028 10 16 N/A
7:56 pm 19:56 Clear 5 -15 N/A 79 79 WNW 6 9 30.36 1028 10 16 N/A
8:56 pm 20:56 Clear 3 -16.1 -2 -18.9 79 79 NW 5 7 30.38 1029 10 16 N/A
9:56 pm 21:56 Clear 2 -16.7 -3 -19.4 80 80 NW 6 9 30.40 1030 10 16 N/A
10:56 pm 22:56 Clear 3 -16.1 -3 -19.4 76 76 NNW 3 6 30.41 1030 10 16 N/A
11:56 pm 23:56 Partly Cloudy 1 -17.2 -2 -18.9 87 87 WNW 5 7 30.42 1030 10 16 N/A

Powered by AerisWeather